Retour au catalogue

DMSP 5D-2 F11 DEB

ActifSSO
NORAD 28330·DEBRIS·🇺🇸 United States

Lancé Nov 28, 1991 depuis Vandenberg Space Force Base

Loading…

Prochains Passages (prochaines 24 heures)

TLE

FraisSource: Space-Track

Époque: Sep 13, 2026, 12:10 UTC

1 28330U 91082AT  26256.50735474  .00003568  00000-0  11218-2 0  9999
2 28330  98.9298 338.3787 0068827 227.2835 132.2545 14.39768641153057

Suivez DMSP 5D-2 F11 DEB en temps réel avec AllMySat

Download on the App Store